Location: Sternwarte auf dem Internationalen Platz Vogelsang IP
(50.5721°N, 6.4398°E)
Time: 09:11:26
(UTC+01:00)

A-11 Canister half - Visible Passes

Search period start: 14 December 2025 00:00
Search period end: 24 December 2025 00:00
Orbit: 1526 x 1681 km, 47.3° (Epoch: 13 December)

Date Brightness Start Highest point End Pass type
(mag) Time Alt. Az. Time Alt. Az. Time Alt. Az.
14 Dec 11.4 18:30:37 10° W 18:36:43 18° SW 18:42:44 10° SSW visible
15 Dec 11.4 18:08:33 10° W 18:14:59 19° SW 18:21:19 10° S visible
16 Dec 11.5 17:46:30 10° W 17:53:14 21° SW 17:59:53 10° S visible
17 Dec 11.5 17:24:29 10° W 17:31:30 22° SW 17:38:25 10° S visible
18 Dec 11.5 17:02:29 10° W 17:09:44 23° SW 17:16:54 10° S visible
21 Dec 11.4 07:39:58 10° S 07:47:49 27° SE 07:55:45 10° E visible
22 Dec 11.4 07:18:25 10° S 07:26:02 26° SE 07:33:47 10° E visible
23 Dec 11.3 06:56:51 10° S 07:04:17 25° SE 07:11:49 10° E visible
